Location: Barcelona
(41.3830°N, 2.1830°E)
Time: 07:54:27
(UTC+02:00)

ISS - Pass Details

Date: 13 October 2017
Orbit: 400 x 408 km, 51.6° (Epoch: 24 October)

Event Time Altitude Azimuth Distance (km) Brightness Sun altitude
Rises 21:41:53 0° 292° (WNW) 2,326 1.3 -28.5°
Reaches altitude 10° 21:44:26 10° 271° (W) 1,464 -0.1 -28.9°
Enters shadow 21:45:16 14° 259° (WSW) 1,257 -0.7 -29.1°
